User: anonymous   Login
Location: Banios
(43.0451°N, 0.2335°E)
Time: 01:56:38
(UTC+00:00)
Language:

Cosmos 1689 Rocket - Orbit

View from above orbital plane
View from above orbital plane
View from above satellite
View from above satellite

Ground track
Ground track

The orbit data is extracted from the following two-line orbital elements,

1 16111U 85090B   21106.54043266  .00016931  00000-0  13519-3 0  9994
2 16111  97.4812 305.1745 0008709 209.4894 150.5879 15.71156742962492
Epoch (UTC): 16 April 2021 12:58:13
Eccentricity: 0.0008709
inclination: 97.4812°
perigee height: 350 km
apogee height: 361 km
right ascension of ascending node: 305.1745°
argument of perigee: 209.4894°
revolutions per day: 15.71156742
mean anomaly at epoch: 150.5879°
orbit number at epoch: 96249

The dashed part of the orbit path shows where the satellite is in the earth's shadow,  

DLR